Weather History for Wise, VA

Change the Weather History Date:

Tuesday, October 30, 2012

  Actual Average Record
Temperature  
Mean Temperature 34 °F -  
Max Temperature 35 °F 59 °F 73 °F (1999)
Min Temperature 32 °F 40 °F 30 °F (2008)
Degree Days  
Heating Degree Days 32    
Moisture  
Dew Point 33 °F    
Average Humidity 100    
Maximum Humidity 100    
Minimum Humidity 93    
Precipitation  
Precipitation 0.03 in - - ()
Sea Level Pressure  
Sea Level Pressure 29.54 in    
Wind  
Wind Speed 16 mph (West)    
Max Wind Speed 23 mph    
Max Gust Speed 37 mph    
Visibility 2 miles    
Events Snow    
Averages and records for this station are not official NWS values.
T = Trace of Precipitation, MM = Missing Value Source: NWS Daily Summary

Daily Weather History Graph

Daily Weather History Graph

Search for Another Location

Airport:

Trip Planner

Search our weather history database for the weather conditions in past years. The results will help you decide how hot, cold, wet, or windy it might be!

Date:

Astronomy

Oct. 30, 2012 Rise Set
Actual Time 7:52 AM EDT 6:34 PM EDT
Civil Twilight 7:25 AM EDT 7:01 PM EDT
Nautical Twilight 6:55 AM EDT 7:31 PM EDT
Astronomical Twilight 6:24 AM EDT 8:01 PM EDT
Moon 7:05 PM EDT (10/30) 8:36 AM EDT (10/30)
Length of Visible Light 11h 35m
Length of Day
10h 41m
Full, 99% of the Moon is Illuminated
Oct 30
Full
Nov 6
Last Quarter
Nov 13
New
Nov 20
First Quarter
Nov 28
Full

Hourly Weather History & Observations

Time (EDT) Temp. Windchill Dew Point Humidity Pressure Visibility Wind Dir Wind Speed Gust Speed Precip Events Conditions
12:15 AM 32.0 °F 19.8 °F 32.0 °F 100% 29.59 in 1.0 mi WNW 20.7 mph 29.9 mph N/A Snow Light Snow
12:35 AM 32.0 °F 20.5 °F 32.0 °F 100% 29.58 in 0.8 mi WNW 18.4 mph 26.5 mph N/A Snow Snow
12:55 AM 32.0 °F 21.6 °F 32.0 °F 100% 29.58 in 0.8 mi WNW 15.0 mph 25.3 mph N/A Snow Snow
1:15 AM 32.0 °F 19.2 °F 32.0 °F 100% 29.57 in 0.8 mi West 23.0 mph 29.9 mph N/A Snow Snow
1:35 AM 32.0 °F 19.5 °F 32.0 °F 100% 29.55 in 1.0 mi West 21.9 mph 33.4 mph N/A Snow Snow
1:55 AM 32.0 °F 20.1 °F 32.0 °F 100% 29.54 in 1.0 mi West 19.6 mph 36.8 mph N/A Snow Snow
2:15 AM 32.0 °F 20.5 °F 32.0 °F 100% 29.53 in 1.2 mi West 18.4 mph 32.2 mph N/A Snow Light Snow
2:35 AM 32.0 °F 21.2 °F 32.0 °F 100% 29.52 in 1.2 mi West 16.1 mph 32.2 mph N/A Snow Light Snow
2:55 AM 32.0 °F 20.5 °F 32.0 °F 100% 29.52 in 1.0 mi West 18.4 mph 27.6 mph N/A Snow Snow
3:55 AM 32.0 °F 20.8 °F 32.0 °F 100% 29.49 in 1.2 mi West 17.3 mph 36.8 mph 0.01 in Snow Light Snow
4:15 AM 32.0 °F 20.1 °F 32.0 °F 100% 29.49 in 1.0 mi West 19.6 mph 26.5 mph N/A Snow Light Snow
4:35 AM 32.0 °F 22.5 °F 32.0 °F 100% 29.48 in 1.0 mi West 12.7 mph 32.2 mph N/A Snow Snow
4:55 AM 32.0 °F 21.6 °F 32.0 °F 100% 29.48 in 1.0 mi West 15.0 mph 23.0 mph N/A Snow Snow
5:15 AM 32.0 °F 21.2 °F 32.0 °F 100% 29.48 in 0.8 mi West 16.1 mph 25.3 mph N/A Snow Snow
5:35 AM 32.0 °F 20.5 °F 32.0 °F 100% 29.49 in 0.8 mi WNW 18.4 mph 27.6 mph 0.01 in Snow Snow
5:55 AM 32.0 °F 23.0 °F 32.0 °F 100% 29.49 in 0.5 mi West 11.5 mph 25.3 mph 0.01 in Snow Snow
6:15 AM 32.0 °F 20.1 °F 32.0 °F 100% 29.49 in 0.8 mi West 19.6 mph 25.3 mph N/A Snow Snow
6:35 AM 32.0 °F 22.1 °F 32.0 °F 100% 29.49 in 0.8 mi West 13.8 mph 27.6 mph N/A Snow Snow
6:55 AM 32.0 °F 20.5 °F 32.0 °F 100% 29.49 in 0.5 mi West 18.4 mph 23.0 mph N/A Snow Snow
7:15 AM 32.0 °F 20.8 °F 32.0 °F 100% 29.49 in 0.8 mi West 17.3 mph 27.6 mph N/A Snow Snow
7:35 AM 32.0 °F 22.5 °F 32.0 °F 100% 29.50 in 0.5 mi WNW 12.7 mph 27.6 mph N/A Snow Snow
7:55 AM 32.0 °F 22.1 °F 32.0 °F 100% 29.50 in 0.2 mi West 13.8 mph 20.7 mph N/A Snow Snow
8:15 AM 32.0 °F 21.2 °F 32.0 °F 100% 29.49 in 0.8 mi West 16.1 mph 25.3 mph N/A Snow Light Snow
8:35 AM 32.0 °F 21.6 °F 32.0 °F 100% 29.50 in 0.8 mi West 15.0 mph 20.7 mph N/A Snow Light Snow
8:55 AM 32.0 °F 20.8 °F 32.0 °F 100% 29.50 in 0.8 mi WNW 17.3 mph 25.3 mph 0.01 in Snow Light Snow
9:15 AM 32.0 °F 22.1 °F 32.0 °F 100% 29.51 in 0.8 mi WNW 13.8 mph 26.5 mph N/A Snow Light Snow
9:35 AM 32.0 °F 21.6 °F 32.0 °F 100% 29.51 in 0.8 mi West 15.0 mph 25.3 mph N/A Snow Light Snow
9:55 AM 32.0 °F 19.2 °F 32.0 °F 100% 29.51 in 1.0 mi West 23.0 mph 31.1 mph N/A Snow Light Snow
10:35 AM 33.8 °F 22.5 °F 33.8 °F 100% 29.50 in 1.0 mi West 19.6 mph 29.9 mph N/A Snow Light Snow
10:55 AM 33.8 °F 23.9 °F 33.8 °F 100% 29.50 in 0.8 mi West 15.0 mph 24.2 mph N/A Snow Light Snow
11:15 AM 33.8 °F 24.3 °F 33.8 °F 100% 29.50 in 1.0 mi West 13.8 mph 26.5 mph N/A Snow Light Snow
11:35 AM 33.8 °F 23.5 °F 33.8 °F 100% 29.51 in 1.2 mi West 16.1 mph 27.6 mph N/A Snow Light Snow
11:55 AM 33.8 °F 22.5 °F 33.8 °F 100% 29.50 in 1.5 mi WNW 19.6 mph 29.9 mph N/A Snow Light Snow
12:15 PM 33.8 °F 23.2 °F 33.8 °F 100% 29.50 in 2.0 mi West 17.3 mph 28.8 mph N/A Snow Light Snow
12:35 PM 33.8 °F 24.8 °F 33.8 °F 100% 29.50 in 1.5 mi West 12.7 mph 27.6 mph N/A Snow Light Snow
12:55 PM 35.6 °F 25.9 °F 33.8 °F 93% 29.50 in 1.8 mi West 16.1 mph 27.6 mph N/A Snow Light Snow
1:15 PM 35.6 °F 27.5 °F 33.8 °F 93% 29.50 in 2.0 mi WNW 11.5 mph 18.4 mph N/A Snow Light Snow
1:35 PM 33.8 °F 23.9 °F 33.8 °F 100% 29.50 in 2.0 mi West 15.0 mph 20.7 mph N/A Snow Light Snow
1:55 PM 33.8 °F 24.3 °F 33.8 °F 100% 29.50 in 3.0 mi West 13.8 mph 24.2 mph N/A Snow Light Snow
2:15 PM 33.8 °F 27.0 °F 33.8 °F 100% 29.50 in 2.0 mi West 8.1 mph 20.7 mph N/A Snow Light Snow
2:35 PM 33.8 °F 23.9 °F 33.8 °F 100% 29.50 in 2.5 mi West 15.0 mph 24.2 mph N/A Snow Light Snow
2:55 PM 33.8 °F 25.8 °F 33.8 °F 100% 29.50 in 3.0 mi West 10.4 mph 20.7 mph N/A Snow Light Snow
3:15 PM 33.8 °F 24.8 °F 33.8 °F 100% 29.51 in 4.0 mi West 12.7 mph 20.7 mph N/A Snow Light Snow
3:35 PM 33.8 °F 24.3 °F 33.8 °F 100% 29.52 in 2.5 mi West 13.8 mph 18.4 mph N/A Snow Light Snow
3:55 PM 33.8 °F 24.8 °F 33.8 °F 100% 29.52 in 2.5 mi West 12.7 mph 21.9 mph N/A Snow Light Snow
4:15 PM 33.8 °F 23.9 °F 33.8 °F 100% 29.53 in 3.0 mi West 15.0 mph 21.9 mph N/A Snow Light Snow
4:35 PM 33.8 °F 24.3 °F 33.8 °F 100% 29.53 in 4.0 mi West 13.8 mph 19.6 mph N/A Snow Light Snow
4:55 PM 33.8 °F 25.8 °F 33.8 °F 100% 29.54 in 5.0 mi West 10.4 mph 21.9 mph N/A   Overcast
5:15 PM 33.8 °F 23.9 °F 33.8 °F 100% 29.55 in 4.0 mi West 15.0 mph 20.7 mph N/A   Overcast
5:35 PM 33.8 °F 25.8 °F 33.8 °F 100% 29.56 in 2.0 mi West 10.4 mph 24.2 mph N/A Snow Light Snow
5:55 PM 33.8 °F 25.3 °F 33.8 °F 100% 29.56 in 3.0 mi West 11.5 mph 18.4 mph N/A   Overcast
6:15 PM 33.8 °F 25.3 °F 33.8 °F 100% 29.57 in 3.0 mi West 11.5 mph 16.1 mph N/A   Overcast
6:35 PM 33.8 °F 24.8 °F 33.8 °F 100% 29.58 in 3.0 mi WSW 12.7 mph 25.3 mph N/A Snow Light Snow
6:55 PM 33.8 °F 23.9 °F 33.8 °F 100% 29.59 in 4.0 mi WSW 15.0 mph 19.6 mph N/A   Overcast
7:15 PM 33.8 °F 23.9 °F 33.8 °F 100% 29.61 in 3.0 mi West 15.0 mph 19.6 mph N/A Snow Light Snow
7:35 PM 33.8 °F 25.3 °F 33.8 °F 100% 29.61 in 3.0 mi West 11.5 mph 20.7 mph N/A Snow Light Snow
7:55 PM 33.8 °F 23.9 °F 33.8 °F 100% 29.62 in 3.0 mi West 15.0 mph 21.9 mph N/A Snow Light Snow
8:15 PM 33.8 °F 24.3 °F 33.8 °F 100% 29.63 in 4.0 mi West 13.8 mph 18.4 mph N/A Snow Light Snow
8:35 PM 33.8 °F 25.3 °F 33.8 °F 100% 29.63 in 4.0 mi WSW 11.5 mph 20.7 mph N/A Snow Light Snow
8:55 PM 33.8 °F 26.4 °F 33.8 °F 100% 29.64 in 5.0 mi West 9.2 mph - N/A   Overcast
9:15 PM 33.8 °F 24.8 °F 33.8 °F 100% 29.65 in 5.0 mi West 12.7 mph 19.6 mph N/A Snow Light Snow
9:35 PM 33.8 °F 23.9 °F 33.8 °F 100% 29.65 in 5.0 mi West 15.0 mph 21.9 mph N/A   Overcast
9:55 PM 33.8 °F 25.3 °F 33.8 °F 100% 29.66 in 5.0 mi West 11.5 mph 17.3 mph N/A   Overcast
10:15 PM 33.8 °F 24.8 °F 33.8 °F 100% 29.66 in 4.0 mi West 12.7 mph 19.6 mph N/A Snow Light Snow
10:35 PM 33.8 °F 25.8 °F 33.8 °F 100% 29.66 in 5.0 mi West 10.4 mph 19.6 mph N/A   Overcast
10:55 PM 33.8 °F 24.8 °F 33.8 °F 100% 29.66 in 4.0 mi West 12.7 mph 18.4 mph N/A   Overcast
11:15 PM 33.8 °F 26.4 °F 33.8 °F 100% 29.66 in 4.0 mi West 9.2 mph - N/A Snow Light Snow
11:35 PM 33.8 °F 25.8 °F 33.8 °F 100% 29.66 in 5.0 mi West 10.4 mph 17.3 mph N/A   Overcast
11:55 PM 33.8 °F 25.8 °F 33.8 °F 100% 29.66 in 4.0 mi West 10.4 mph 20.7 mph N/A Snow Light Snow